Douglas, WY

4:18 AM MST on November 21, 2017 (GMT -0700)
Converse County

Weather History for KDGW - March, 2013

Change the Weather History Date:

Thursday, March 14, 2013

  Actual Average Record
Temperature  
Mean Temperature 50 °F 35 °F  
Max Temperature 68 °F 49 °F 75 °F (2003)
Min Temperature 31 °F 21 °F 11 °F (2006)
Degree Days  
Heating Degree Days 15 30  
Month to date heating degree days 400 452  
Since 1 July heating degree days 5431 5852  
Cooling Degree Days 0 0  
Month to date cooling degree days 0 0  
Year to date cooling degree days 0 0  
Moisture  
Dew Point 26 °F    
Average Humidity 46    
Maximum Humidity 72    
Minimum Humidity 20    
Precipitation  
Precipitation 0.00 in 0.03 in 0.22 in (2002)
Month to date precipitation 0.05 0.29  
Year to date precipitation 0.54 1.08  
Sea Level Pressure  
Sea Level Pressure 30.12 in    
Wind  
Wind Speed 8 mph (WNW)    
Max Wind Speed 25 mph    
Max Gust Speed 31 mph    
Visibility 10 miles    
Events      
T = Trace of Precipitation, MM = Missing Value Source: NWS Daily Summary

Daily Weather History Graph

Daily Weather History Graph

Search for Another Location

Airport or City:

Trip Planner

Search our weather history database for the weather conditions in past years. The results will help you decide how hot, cold, wet, or windy it might be!

Date:

Astronomy

Mar. 14, 2013 Rise Set
Actual Time 7:14 AM MDT 7:07 PM MDT
Civil Twilight 6:46 AM MDT 7:35 PM MDT
Nautical Twilight 6:13 AM MDT 8:08 PM MDT
Astronomical Twilight 5:40 AM MDT 8:41 PM MDT
Moon 8:25 AM MDT (3/14) 10:32 PM MDT (3/14)
Length of Visible Light 12h 48m
Length of Day
11h 52m
Waxing Crescent, 9% of the Moon is Illuminated
Mar 14
Waxing Crescent
Mar 19
First Quarter
Mar 27
Full
Apr 2
Last Quarter
Apr 10
New

Hourly Weather History & Observations

Time (MDT) Temp. Windchill Dew Point Humidity Pressure Visibility Wind Dir Wind Speed Gust Speed Precip Events Conditions
12:53 AM 39.9 °F 35.8 °F 28.0 °F 63% 30.13 in 10.0 mi North 5.8 mph - N/A   Clear
1:53 AM 41.0 °F 35.8 °F 28.9 °F 62% 30.15 in 10.0 mi NW 8.1 mph - N/A   Clear
2:53 AM 39.9 °F 35.8 °F 28.0 °F 63% 30.15 in 10.0 mi NW 5.8 mph - N/A   Clear
3:53 AM 37.9 °F 32.7 °F 27.0 °F 65% 30.14 in 10.0 mi North 6.9 mph - N/A   Clear
4:53 AM 35.1 °F 27.9 °F 26.1 °F 70% 30.17 in 10.0 mi NNW 9.2 mph - N/A   Clear
5:53 AM 35.1 °F 27.9 °F 26.1 °F 70% 30.19 in 10.0 mi NNW 9.2 mph - N/A   Clear
6:53 AM 32.0 °F 26.4 °F 24.1 °F 73% 30.23 in 10.0 mi NW 5.8 mph - N/A   Clear
7:53 AM 32.0 °F - 25.0 °F 75% 30.26 in 10.0 mi Calm Calm - N/A   Clear
8:53 AM 42.1 °F - 28.0 °F 58% 30.24 in 10.0 mi Calm Calm - N/A   Clear
9:53 AM 48.0 °F - 27.0 °F 44% 30.23 in 10.0 mi SSE 3.5 mph - N/A   Clear
10:53 AM 54.0 °F - 27.0 °F 35% 30.20 in 10.0 mi West 3.5 mph - N/A   Clear
11:53 AM 60.1 °F - 28.0 °F 30% 30.15 in 10.0 mi Variable 3.5 mph - N/A   Clear
12:53 PM 64.9 °F - 24.1 °F 21% 30.12 in 10.0 mi West 10.4 mph 24.2 mph N/A   Clear
1:53 PM 66.9 °F - 24.1 °F 20% 30.08 in 10.0 mi West 20.7 mph 29.9 mph N/A   Clear
2:53 PM 66.0 °F - 26.1 °F 22% 30.06 in 10.0 mi West 18.4 mph - N/A   Clear
3:53 PM 66.9 °F - 25.0 °F 21% 30.04 in 10.0 mi WSW 21.9 mph 31.1 mph N/A   Clear
4:53 PM 64.9 °F - 25.0 °F 22% 30.05 in 10.0 mi West 19.6 mph 26.5 mph N/A   Clear
5:53 PM 64.0 °F - 25.0 °F 23% 30.05 in 10.0 mi West 12.7 mph - N/A   Clear
6:53 PM 59.0 °F - 26.1 °F 28% 30.07 in 10.0 mi West 12.7 mph - N/A   Clear
7:53 PM 52.0 °F - 25.0 °F 35% 30.10 in 10.0 mi WNW 4.6 mph - N/A   Clear
8:53 PM 51.1 °F - 25.0 °F 36% 30.07 in 10.0 mi NNW 3.5 mph - N/A   Clear
9:53 PM 46.0 °F - 27.0 °F 47% 30.06 in 10.0 mi Calm Calm - N/A   Clear
10:53 PM 45.0 °F 42.6 °F 28.0 °F 52% 30.03 in 10.0 mi ESE 4.6 mph - N/A   Clear
11:53 PM 46.9 °F - 27.0 °F 46% 29.98 in 10.0 mi Calm Calm - N/A   Clear